STARLINK-34939 (65183 NORAD) Tracking and Keplerian Element Data

This shows tracking and keplerian element data for the satellite.

Feedback or suggestion? Click here.




ElementValue
Catalog65183
NameSTARLINK-34939
Epoch Orbit2063
Epoch Day354.10160136
Epoch Year2025
RAAN224.1931
Inclination97.6042
Eccentricity0.0002494
Argument of Perigee84.4021
Mean Anonmoly275.7491
Mean Motion15.05654235
Decay Rate3.446E-05
L11 65183U 25175K 25354.10160136 .00003446 00000+0 24287-3 0 9992
L22 65183 97.6042 224.1931 0002494 84.4021 275.7491 15.05654235 20635



Live tracking and technical data element details for STARLINK-34939 (NORAD 65183). STARLINK-34939 can be tracked NOW for your location showing map with azimuth and elevation plus other details from your city location.







IsCatalogInMostPopularTable: catalog: 65183, numindb: 4
Update: records affected: 1



GetName: 65183 STARLINK-34939

Hit Count: updated at: Sun, 08 Feb 2026 09:02:55 GMT